Regional Weather Roundup
Issued by NWS

Home | Current Version | Previous Version | Text Only | Print | Product List | Glossary On
Versions: 1 2 3 4 5 6 7 8 9 10 11 12 13 14 15 16 17 18 19 20 21 22 23 24 25 26 27 28 29 30 31 32 33 34 35 36 37 38 39 40 41 42 43 44 45 46 47 48 49 50
000
ASUS43 KLSX 301310
RWRMO

WEATHER SUMMARY FOR MISSOURI
NATIONAL WEATHER SERVICE SPRINGFIELD MO
800 AM CDT TUE MAY 30 2017

NOTE: "FAIR" INDICATES FEW OR NO CLOUDS BELOW 12,000 FEET WITH NO
       SIGNIFICANT WEATHER AND/OR OBSTRUCTIONS TO VISIBILITY.
       CURRENT SKY AND/OR WEATHER CONDITIONS ARE NOT AVAILABLE FOR
       CHILLICOTHE AND FARMINGTON.

MOZ001>031-035>038-043-044-053-054-301400-
...NORTHERN AND WESTERN MISSOURI...

CITY           SKY/WX    TMP DP  RH WIND       PRES   REMARKS
KANSAS CTY INT MOSUNNY   60  51  72 S3        30.08S
KANSAS C DTWN  SUNNY     63  55  75 CALM      30.08S
LEE`S SUMMIT   CLOUDY    65  47  52 SE5       30.10R
ST JOSEPH      SUNNY     58  53  84 CALM      30.08F
CHILLICOTHE      N/A     61  52  72 CALM      30.08F
KIRKSVILLE     SUNNY    N/A N/A N/A W3        30.08S

$$
MOZ066>068-077>081-088>096-101>105-301400-
...SOUTHWEST MISSOURI...

CITY           SKY/WX    TMP DP  RH WIND       PRES   REMARKS
SPRINGFIELD    SUNNY     67  59  75 CALM      30.10R
JOPLIN         PTSUNNY   64  60  87 E6        30.09F
BRANSON        MOSUNNY   68  57  68 W3        30.12R

$$
MOZ032>034-039>042-045>050-055>058-069>072-301400-
...CENTRAL MISSOURI...

CITY           SKY/WX    TMP DP  RH WIND       PRES   REMARKS
COLUMBIA       SUNNY     66  51  58 CALM      30.10R
JEFFERSON CITY MOSUNNY   62  56  80 CALM      30.10R
ROLLA          MOSUNNY   65  53  65 N3        30.09R
SEDALIA        CLOUDY    65  52  62 CALM      30.11R
WHITEMAN AFB   SUNNY     64  55  72 CALM      30.09R
WARRENSBURG    CLOUDY    59  52  77 CALM      30.09S
OSAGE BEACH    MOSUNNY   57  56  96 CALM      30.11R

$$
MOZ051-052-059>065-301400-
...EAST CENTRAL MISSOURI...

CITY           SKY/WX    TMP DP  RH WIND       PRES   REMARKS
ST LOUIS INTL  MOSUNNY   68  54  60 W6        30.08R
SPIRIT OF STL  MOSUNNY   64  56  75 SW5       30.08R
ST CHARLES     SUNNY     67  54  63 NW6       30.06R

$$
MOZ072>076-082>087-097>100-106>115-301400-
...SOUTH CENTRAL AND SOUTHEAST MISSOURI...

CITY           SKY/WX    TMP DP  RH WIND       PRES   REMARKS
CAPE GIRARDEAU SUNNY     68  60  75 W3        30.06R
FARMINGTON     SUNNY     65  57  75 CALM      30.10R
POPLAR BLUFF   MOSUNNY   69  61  75 CALM      30.06R
WEST PLAINS    SUNNY     69  61  75 NW5       30.11R

$$




USA.gov is the U.S. government's official web portal to all federal, state and local government web resources and services.